Regional Weather Roundup
Issued by NWS

Home | Current Version | Previous Version | Graphics & Text | Print | Product List | Glossary On
Versions: 1 2 3 4 5 6 7 8 9 10 11 12 13 14 15 16 17 18 19 20 21 22 23 24 25 26 27 28 29 30 31 32 33 34 35 36 37 38 39 40 41 42 43 44 45 46 47 48 49 50
000
ASUS43 KDMX 101608
RWRIA

WEATHER ROUNDUP FOR IOWA
NATIONAL WEATHER SERVICE DES MOINES IA
1000 AM CST WED FEB 10 2016

NOTE: "FAIR" INDICATES FEW OR NO CLOUDS BELOW 12,000 FEET WITH NO
SIGNIFICANT WEATHER AND/OR OBSTRUCTIONS TO VISIBILITY.

* - THESE STATIONS ARE NOT NWS STATIONS...THUS NOT UNDER NWS
QUALITY CONTROL.  THEY ALSO DO NOT REPORT WEATHER SUCH
AS PRECIPITATION OR FOG.

IAZ001>003-012>014-020>022-031>034-043>046-101700-
   NORTHWEST IOWA

CITY           SKY/WX    TMP DP  RH WIND       PRES   REMARKS
CARROLL *      LGT SNOW  14  12  92 E14       30.05R WCI  -1
CHEROKEE *     LGT SNOW  16  14  93 E12       30.01F WCI   3
DENISON *      CLOUDY    21  19  93 SE13      29.97F WCI   9
LE MARS *      CLOUDY    23  21  93 SE12      29.99S WCI  12
ORANGE CITY *  FLURRIES  19  18  93 E10       29.97S WCI   8
SHELDON *      CLOUDY    14  12  92 E17       29.98F WCI  -3
SIOUX CITY     PTSUNNY   26  17  68 SE12      29.97S WCI  16
SPENCER        LGT SNOW  12   7  80 E13       30.03F WCI  -3
STORM LAKE *   FLURRIES  14  12  92 E16       30.01S WCI  -2
$$

IAZ055>058-069>071-079>083-090>094-101700-
   SOUTHWEST IOWA

CITY           SKY/WX    TMP DP  RH WIND       PRES   REMARKS
ATLANTIC *     CLOUDY    25  18  74 SE8       30.02F WCI  16
AUDUBON *      LGT SNOW  21  18  86 SE8       30.02S WCI  12
CLARINDA *     PTSUNNY   30  18  59 S9        30.06R WCI  22
COUNCIL BLFS * SUNNY     27  21  80 SE9       29.97F WCI  17
CRESTON *      LGT SNOW  23  18  80 SE12      30.04F WCI  12
HARLAN  *      CLOUDY    25  19  80 SE10      30.02F WCI  15
LAMONI         LGT SNOW  21  17  84 SE5       30.08S FOG     WCI  15
RED OAK *      MOSUNNY   30  19  64 SE12      30.00F WCI  21
SHENANDOAH *   MOSUNNY   32  18  55 S13       30.02F WCI  22
$$

IAZ047>049-059>061-072>074-084-101700-
   CENTRAL IOWA

CITY           SKY/WX    TMP DP  RH WIND       PRES   REMARKS
AMES           LGT SNOW  13   9  84 E6        30.11R VSB 3/4 WCI   4
ANKENY *       LGT SNOW  16  12  86 E3        30.11S
BOONE *        LGT SNOW  12   9  85 E5        30.08R WCI   4
CHARITON *     LGT SNOW  18  14  86 SE6       30.09S VSB 3/4 WCI   9
DES MOINES     LGT SNOW  17  11  77 SE3       30.10S VSB 3/4
GRINNELL*      LGT SNOW  12   7  79 CALM      30.11S
KNOXVILLE *    LGT SNOW  16  10  79 CALM      30.10S
MARSHALLTOWN   LGT SNOW  11   4  73 NE3       30.10S
NEWTON *       LGT SNOW  12   9  85 CALM      30.11R
PELLA *        LGT SNOW  16  10  79 CALM      30.13S VSB 3/4
$$

IAZ004>006-015-016-023>025-035-036-101700-
   NORTH CENTRAL IOWA

CITY           SKY/WX    TMP DP  RH WIND       PRES   REMARKS
ALGONA *       LGT SNOW  10   7  85 E6        30.07R WCI   1
CLARION *      MOSUNNY   10   3  72 E5        30.10R HAZE    WCI   2
ESTHERVILLE    LGT SNOW   9   5  84 SE7       30.05S FOG     WCI  -2
FORT DODGE *   CLOUDY    10   5  79 E8        30.09R WCI  -1
MASON CITY     CLOUDY     7  -1  70 E5        30.10R WCI  -2
FOREST CITY *  CLOUDY     9   3  78 E3        30.08S
WEBSTER CITY * LGT SNOW  10   7  85 E6        30.07S WCI   1
IOWA FALLS *   LGT SNOW  12   5  73 CALM      30.10S
$$

IAZ007>011-017>019-026>030-037>042-050>054-066-101700-
   NORTHEAST IOWA

CITY           SKY/WX    TMP DP  RH WIND       PRES   REMARKS
CEDAR RAPIDS   CLOUDY    10   1  67 N6        30.11S WCI   0
CHARLES CITY * CLOUDY     5  -2  72 N5        30.10S WCI  -4
CLINTON *      SUNNY     12   2  64 NW9       30.11S WCI   0
DECORAH *      SUNNY      5  -6  61 N8        30.08R WCI  -8
DUBUQUE        MOSUNNY    8  -2  63 NW8       30.07R WCI  -4
MONTICELLO *   SUNNY     10  -2  56 NW5       30.12R WCI   2
OELWEIN *      SUNNY      5  -4  66 N9        30.10F WCI  -9
WATERLOO       CLOUDY     8  -1  66 N5        30.12S WCI   0
$$

IAZ064-065-067-068-078-101700-
   EAST CENTRAL IOWA

CITY           SKY/WX    TMP DP  RH WIND       PRES   REMARKS
DAVENPORT      MOSUNNY   12   0  58 W12       30.12R WCI  -2
IOWA CITY      CLOUDY    12   1  61 NW6       30.16R WCI   3
MT. PLEASANT * CLOUDY    18   5  57 CALM      30.14R
MUSCATINE *    SUNNY     14   1  57 NW9       30.16R WCI   2
QUAD CITIES    MOSUNNY   13   0  56 W9        30.12S WCI   1
$$

IAZ062-063-075>077-085>089-095>099-101700-
   SOUTHEAST IOWA

CITY           SKY/WX    TMP DP  RH WIND       PRES   REMARKS
BURLINGTON     CLOUDY    14   3  61 VRB6      30.13S WCI   5
FAIRFIELD *    SUNNY     14   3  62 CALM      30.13S
FORT MADISON * CLOUDY    14   5  67 NW7       30.14S WCI   4
KEOKUK *       MOSUNNY   16   3  57 NW7       30.14S WCI   6
OSKALOOSA *    LGT SNOW  14   7  73 CALM      30.12S
CENTERVILLE *  LGT SNOW  16  14  93 CALM      30.12R
OTTUMWA        LGT SNOW  15   8  73 CALM      30.12S
WASHINGTON *   PTSUNNY   14   3  62 NW6       30.15R WCI   5
$$

ABBREVIATIONS USED IN REMARKS
   TC - TEMPERATURES IN CELSIUS
  WCI - WIND CHILL INDEX
   HX - HEAT INDEX
  VSB - VISIBILITY
$$




USA.gov is the U.S. government's official web portal to all federal, state and local government web resources and services.